Météo par heure à Ali-Yurt

Ce jour, 22 Octobre, Jeudi

Heure Température Précipitation Vent Pression Humidité
00:00 +9°C° 0 mm 1 m/s 708 mmHg 72%
01:00 +8°C° 0 mm 1 m/s 708 mmHg 71%
02:00 +8°C° 0 mm 1 m/s 707 mmHg 71%
03:00 +8°C° 0 mm 1 m/s 707 mmHg 71%
04:00 +8°C° 0 mm 1 m/s 707 mmHg 71%
05:00 +8°C° 0 mm 1 m/s 707 mmHg 71%
06:00 +8°C° 0 mm 1 m/s 707 mmHg 71%
07:00 +9°C° 0 mm 1 m/s 707 mmHg 65%
08:00 +11°C° 0 mm 1 m/s 707 mmHg 59%
09:00 +12°C° 0 mm 1 m/s 707 mmHg 53%
10:00 +14°C° 0 mm 1 m/s 707 mmHg 49%
11:00 +15°C° 0 mm 1 m/s 707 mmHg 46%
12:00 +16°C° 0 mm 1 m/s 707 mmHg 42%
13:00 +18°C° 0 mm 1 m/s 707 mmHg 41%
14:00 +18°C° 0 mm 1 m/s 707 mmHg 41%
15:00 +18°C° 0 mm 1 m/s 707 mmHg 40%
16:00 +15°C° 0 mm 1 m/s 707 mmHg 45%
17:00 +14°C° 0 mm 1 m/s 707 mmHg 50%
18:00 +12°C° 0 mm 1 m/s 706 mmHg 55%
19:00 +11°C° 0 mm 0 m/s 706 mmHg 56%
20:00 +10°C° 0 mm 0 m/s 706 mmHg 58%
21:00 +10°C° 0 mm 0 m/s 706 mmHg 60%
22:00 +10°C° 0 mm 0 m/s 706 mmHg 61%
23:00 +10°C° 0 mm 0 m/s 706 mmHg 61%

Demain, 23 Octobre, Vendredi

Heure Température Précipitation Vent Pression Humidité
00:00 +10°C° 0 mm 1 m/s 706 mmHg 62%
01:00 +9°C° 0 mm 0 m/s 706 mmHg 62%
02:00 +9°C° 0 mm 0 m/s 706 mmHg 61%
03:00 +9°C° 0 mm 0 m/s 706 mmHg 61%
04:00 +10°C° 0 mm 1 m/s 706 mmHg 61%
05:00 +10°C° 0 mm 1 m/s 706 mmHg 60%
06:00 +10°C° 0 mm 1 m/s 706 mmHg 59%
07:00 +12°C° 0 mm 1 m/s 707 mmHg 53%
08:00 +13°C° 0 mm 0 m/s 707 mmHg 48%
09:00 +15°C° 0 mm 0 m/s 707 mmHg 42%
10:00 +16°C° 0 mm 0 m/s 708 mmHg 37%
11:00 +20°C° 0 mm 1 m/s 708 mmHg 33%
12:00 +21°C° 0 mm 1 m/s 708 mmHg 29%
13:00 +21°C° 0 mm 1 m/s 707 mmHg 28%
14:00 +22°C° 0 mm 1 m/s 707 mmHg 27%
15:00 +22°C° 0 mm 1 m/s 707 mmHg 26%
16:00 +20°C° 0 mm 1 m/s 707 mmHg 31%
17:00 +18°C° 0 mm 1 m/s 707 mmHg 36%
18:00 +15°C° 0 mm 1 m/s 706 mmHg 41%
19:00 +15°C° 0 mm 1 m/s 706 mmHg 41%
20:00 +14°C° 0 mm 1 m/s 706 mmHg 42%
21:00 +14°C° 0 mm 1 m/s 706 mmHg 42%
22:00 +14°C° 0 mm 1 m/s 706 mmHg 42%
23:00 +14°C° 0 mm 1 m/s 705 mmHg 41%

Après-demain, 24 Octobre, Samedi

Heure Température Précipitation Vent Pression Humidité
00:00 +14°C° 0 mm 1 m/s 705 mmHg 41%
01:00 +14°C° 0 mm 1 m/s 705 mmHg 42%
02:00 +13°C° 0 mm 1 m/s 704 mmHg 42%
03:00 +13°C° 0 mm 1 m/s 704 mmHg 43%
04:00 +13°C° 0 mm 1 m/s 704 mmHg 44%
05:00 +13°C° 0 mm 1 m/s 704 mmHg 45%
06:00 +12°C° 0 mm 1 m/s 704 mmHg 46%
07:00 +14°C° 0 mm 1 m/s 704 mmHg 43%
08:00 +16°C° 0 mm 1 m/s 704 mmHg 40%
09:00 +18°C° 0 mm 1 m/s 705 mmHg 36%
10:00 +20°C° 0 mm 1 m/s 704 mmHg 34%
11:00 +21°C° 0 mm 1 m/s 704 mmHg 31%
12:00 +23°C° 0 mm 1 m/s 704 mmHg 28%
13:00 +23°C° 0 mm 1 m/s 704 mmHg 28%
14:00 +23°C° 0 mm 1 m/s 704 mmHg 28%
15:00 +23°C° 0 mm 1 m/s 704 mmHg 28%
16:00 +21°C° 0 mm 1 m/s 704 mmHg 33%
17:00 +19°C° 0 mm 1 m/s 704 mmHg 38%
18:00 +16°C° 0 mm 1 m/s 703 mmHg 43%
19:00 +16°C° 0 mm 1 m/s 703 mmHg 44%
20:00 +15°C° 0 mm 1 m/s 704 mmHg 45%
21:00 +15°C° 0 mm 1 m/s 704 mmHg 47%
22:00 +15°C° 0 mm 1 m/s 703 mmHg 48%
23:00 +14°C° 0 mm 1 m/s 703 mmHg 48%

, 25 Octobre, Dimanche

Heure Température Précipitation Vent Pression Humidité
00:00 +14°C° 0 mm 1 m/s 703 mmHg 49%
01:00 +14°C° 0 mm 1 m/s 703 mmHg 49%
02:00 +14°C° 0 mm 1 m/s 702 mmHg 49%
03:00 +13°C° 0 mm 1 m/s 702 mmHg 50%
04:00 +13°C° 0 mm 1 m/s 702 mmHg 49%
05:00 +13°C° 0 mm 1 m/s 702 mmHg 49%
06:00 +13°C° 0 mm 1 m/s 702 mmHg 48%
07:00 +15°C° 0 mm 1 m/s 702 mmHg 44%
08:00 +16°C° 0 mm 0 m/s 703 mmHg 40%
09:00 +17°C° 0 mm 0 m/s 703 mmHg 35%
10:00 +18°C° 0 mm 0 m/s 703 mmHg 34%
11:00 +22°C° 0 mm 1 m/s 703 mmHg 32%
12:00 +23°C° 0 mm 1 m/s 702 mmHg 30%
13:00 +22°C° 0 mm 1 m/s 702 mmHg 31%
14:00 +22°C° 0 mm 1 m/s 702 mmHg 32%
15:00 +22°C° 0 mm 1 m/s 702 mmHg 33%
16:00 +20°C° 0 mm 1 m/s 702 mmHg 38%
17:00 +18°C° 0 mm 1 m/s 702 mmHg 43%
18:00 +15°C° 0 mm 0 m/s 702 mmHg 48%
19:00 +15°C° 0 mm 1 m/s 702 mmHg 48%
20:00 +15°C° 0 mm 1 m/s 702 mmHg 49%
21:00 +15°C° 0 mm 1 m/s 703 mmHg 49%
22:00 +14°C° 0 mm 1 m/s 703 mmHg 49%
23:00 +14°C° 0 mm 1 m/s 702 mmHg 49%

25 Octobre, Dimanche

Heure Température Précipitation Vent Pression Humidité
00:00 +14°C° 0 mm 1 m/s 703 mmHg 49%
01:00 +14°C° 0 mm 1 m/s 703 mmHg 49%
02:00 +14°C° 0 mm 1 m/s 702 mmHg 49%
03:00 +13°C° 0 mm 1 m/s 702 mmHg 50%
04:00 +13°C° 0 mm 1 m/s 702 mmHg 49%
05:00 +13°C° 0 mm 1 m/s 702 mmHg 49%
06:00 +13°C° 0 mm 1 m/s 702 mmHg 48%
07:00 +15°C° 0 mm 1 m/s 702 mmHg 44%
08:00 +16°C° 0 mm 0 m/s 703 mmHg 40%
09:00 +17°C° 0 mm 0 m/s 703 mmHg 35%
10:00 +18°C° 0 mm 0 m/s 703 mmHg 34%
11:00 +22°C° 0 mm 1 m/s 703 mmHg 32%
12:00 +23°C° 0 mm 1 m/s 702 mmHg 30%
13:00 +22°C° 0 mm 1 m/s 702 mmHg 31%
14:00 +22°C° 0 mm 1 m/s 702 mmHg 32%
15:00 +22°C° 0 mm 1 m/s 702 mmHg 33%
16:00 +20°C° 0 mm 1 m/s 702 mmHg 38%
17:00 +18°C° 0 mm 1 m/s 702 mmHg 43%
18:00 +15°C° 0 mm 0 m/s 702 mmHg 48%
19:00 +15°C° 0 mm 1 m/s 702 mmHg 48%
20:00 +15°C° 0 mm 1 m/s 702 mmHg 49%
21:00 +15°C° 0 mm 1 m/s 703 mmHg 49%
22:00 +14°C° 0 mm 1 m/s 703 mmHg 49%
23:00 +14°C° 0 mm 1 m/s 702 mmHg 49%

26 Octobre, Lundi

Heure Température Précipitation Vent Pression Humidité
00:00 +14°C° 0 mm 1 m/s 702 mmHg 49%
01:00 +13°C° 0 mm 1 m/s 702 mmHg 50%
02:00 +13°C° 0 mm 1 m/s 703 mmHg 50%
03:00 +13°C° 0 mm 1 m/s 703 mmHg 51%
04:00 +12°C° 0 mm 1 m/s 703 mmHg 52%
05:00 +12°C° 0 mm 1 m/s 703 mmHg 54%
06:00 +11°C° 0 mm 1 m/s 703 mmHg 55%
07:00 +13°C° 0 mm 1 m/s 703 mmHg 54%
08:00 +14°C° 0 mm 1 m/s 704 mmHg 54%
09:00 +15°C° 0 mm 1 m/s 704 mmHg 53%
10:00 +16°C° 0 mm 1 m/s 704 mmHg 52%
11:00 +18°C° 0 mm 1 m/s 704 mmHg 51%
12:00 +19°C° 0 mm 1 m/s 704 mmHg 50%
13:00 +19°C° 0 mm 1 m/s 704 mmHg 50%
14:00 +19°C° 0 mm 1 m/s 704 mmHg 49%
15:00 +18°C° 0 mm 2 m/s 704 mmHg 49%
16:00 +16°C° 0 mm 1 m/s 705 mmHg 57%
17:00 +15°C° 0 mm 1 m/s 705 mmHg 65%
18:00 +13°C° 0 mm 1 m/s 705 mmHg 73%
19:00 +12°C° 0 mm 1 m/s 705 mmHg 75%
20:00 +12°C° 0 mm 1 m/s 705 mmHg 78%
21:00 +11°C° 0 mm 1 m/s 705 mmHg 80%
22:00 +11°C° 0 mm 1 m/s 705 mmHg 77%
23:00 +10°C° 0 mm 1 m/s 705 mmHg 74%

27 Octobre, Mardi

Heure Température Précipitation Vent Pression Humidité
00:00 +10°C° 0 mm 1 m/s 706 mmHg 72%
01:00 +9°C° 0 mm 1 m/s 705 mmHg 72%
02:00 +9°C° 0 mm 1 m/s 705 mmHg 72%
03:00 +9°C° 0 mm 1 m/s 705 mmHg 72%
04:00 +8°C° 0 mm 1 m/s 705 mmHg 72%
05:00 +8°C° 0 mm 1 m/s 706 mmHg 73%
06:00 +8°C° 0 mm 1 m/s 706 mmHg 74%
07:00 +9°C° 0 mm 1 m/s 706 mmHg 68%
08:00 +11°C° 0 mm 1 m/s 706 mmHg 62%
09:00 +12°C° 0 mm 2 m/s 707 mmHg 56%
10:00 +14°C° 0 mm 2 m/s 707 mmHg 53%
11:00 +15°C° 0 mm 2 m/s 707 mmHg 49%
12:00 +16°C° 0 mm 3 m/s 707 mmHg 46%
13:00 +16°C° 0 mm 3 m/s 707 mmHg 46%
14:00 +16°C° 0 mm 3 m/s 707 mmHg 46%
15:00 +16°C° 0 mm 3 m/s 707 mmHg 46%
16:00 +13°C° 0 mm 3 m/s 707 mmHg 50%
17:00 +12°C° 0 mm 3 m/s 707 mmHg 54%
18:00 +10°C° 0 mm 2 m/s 706 mmHg 57%
19:00 +9°C° 0 mm 2 m/s 706 mmHg 60%
20:00 +9°C° 0 mm 2 m/s 707 mmHg 64%
21:00 +8°C° 0 mm 2 m/s 707 mmHg 67%
22:00 +8°C° 0 mm 2 m/s 706 mmHg 70%
23:00 +8°C° 0 mm 1 m/s 706 mmHg 73%
Voir plus

Nous avons besoin de votre consentement

Meteoprog et ses fournisseurs de services peuvent stocker et accéder à des données personnelles telles que des cookies, des identifiants d'appareils ou d'autres technologies similaires sur votre appareil et traiter ces données pour personnaliser le contenu et les publicités, ainsi que pour fournir des fonctionnalités de médias sociaux et analyser le trafic.

  • Stocker et/ou accéder à des informations sur votre appareil

    Des cookies, des identifiants d'appareils ou d'autres informations peuvent être stockés ou accessibles sur votre appareil aux fins indiquées ci-dessus.

  • Annonces et contenus personnalisés, mesure des annonces et des contenus, connaissance de l'audience et développement de produits

    Les annonces et le contenu peuvent être personnalisés en fonction d'un profil. D'autres données peuvent être ajoutées pour mieux personnaliser les annonces et le contenu. Les performances des publicités et du contenu peuvent être mesurées. Il est possible d'obtenir des informations sur le public qui a vu les publicités et le contenu. Ces données peuvent être utilisées pour développer ou améliorer l'expérience de l'utilisateur, les systèmes et les logiciels.

En cliquant sur "J'accepte", vous autorisez l'utilisation de cookies, des identifiants d'appareils, des balises web ou d'autres technologies similaires. Vos paramètres peuvent être modifiés dans le navigateur de votre appareil.

Dans certains cas, des intérêts légitimes peuvent être invoqués plutôt qu'un consentement. Vous pouvez en savoir plus à ce sujet dans notre Politique de confidentialité et de cookies.